Location: Recife
(8.0585°S, 34.8848°W)
Time: 11:09:21
(UTC-03:00)

Transit 2A - Pass Details

Date: 18 April 2026
Orbit: 594 x 950 km, 66.7° (Epoch: 14 May)

Event Time Altitude Azimuth Distance (km) Brightness Sun altitude
Rises 07:22:11 0° 9° (N) 2,919 9.3 28.1°
Reaches altitude 10° 07:25:07 10° 28° (NNE) 1,972 8.9 28.8°
Maximum altitude 07:28:04 18° 71° (ENE) 1,509 9.8 29.5°
Drops below altitude 10° 07:30:58 10° 113° (ESE) 1,930 8.9 30.2°
Sets 07:33:48 0° 133° (SE) 2,832 9.3 30.9°
